PBO Station Position Time Series. Reference Frame : NAM14
Format Version,1.1.0
4-character ID,P325
Station name,SchoolHousCN2006
Begin Date, 2006-10-26
End Date, 2019-10-07
Release Date, 2019-10-08
Reference position, 41.1516701977 North Latitude, -123.8826072011 East Longitude, 914.56314 meters elevation,
Date, North (mm), East (mm), Vertical (mm), North Std. Deviation (mm), East Std. Deviation (mm),              Vertical Std. Deviation (mm), Quality,
2006-10-26,0.00, 0.00, 0.00, 2.11, 1.66, 7.66, repro,
2006-10-27,0.27, -0.57, -1.95, 2.07, 1.64, 7.55, repro,
2006-10-28,-1.07, 0.34, -1.87, 2.14, 1.64, 7.78, repro,
2006-10-29,-0.53, 0.35, 0.32, 2.06, 1.61, 7.40, repro,
2006-10-30,-0.00, -0.06, -6.81, 2.01, 1.58, 7.19, repro,
2006-10-31,-0.43, -0.20, -2.14, 2.08, 1.62, 7.50, repro,
2006-11-01,-1.20, -0.67, 4.58, 2.09, 1.66, 7.65, repro,
2006-11-02,-1.57, -2.03, 1.96, 2.07, 1.62, 7.46, repro,
2006-11-03,0.65, 1.84, -6.03, 2.14, 1.71, 7.78, repro,
2006-11-04,0.96, 0.27, -2.05, 2.14, 1.66, 7.62, repro,
2006-11-05,0.79, 0.41, -10.83, 2.18, 1.68, 7.77, repro,
2006-11-06,0.21, 0.91, -11.43, 2.04, 1.59, 7.34, repro,
2006-11-07,1.95, 0.86, -5.48, 2.17, 1.68, 7.75, repro,
2006-11-08,-1.70, -0.01, 1.62, 2.17, 1.68, 7.71, repro,
2006-11-09,-0.23, 0.54, 0.56, 2.21, 1.73, 7.87, repro,
2006-11-10,0.13, -0.42, -9.03, 2.11, 1.61, 7.39, repro,
2006-11-11,-0.23, -0.22, -4.94, 2.14, 1.65, 7.60, repro,
2006-11-12,-0.93, -0.35, -5.81, 2.22, 1.73, 7.82, repro,
2006-11-13,1.87, 1.32, -5.48, 2.23, 1.77, 7.84, repro,
2006-11-14,-1.06, -0.96, -1.12, 2.14, 1.62, 7.47, repro,
2006-11-15,-1.05, 0.12, -9.88, 2.09, 1.61, 7.39, repro,
2006-11-16,-0.20, 0.34, -1.94, 2.03, 1.58, 7.23, repro,
2006-11-17,-0.34, 0.06, -6.54, 2.03, 1.59, 7.31, repro,
2006-11-18,-0.55, 0.79, -9.60, 2.07, 1.62, 7.39, repro,
2006-11-19,-0.52, -0.32, -4.19, 2.03, 1.60, 7.27, repro,
2006-11-20,0.46, 1.26, -12.75, 2.02, 1.58, 7.18, repro,
2006-11-21,1.19, -0.68, -2.28, 2.07, 1.62, 7.39, repro,
2006-11-22,1.05, 0.58, -9.28, 2.01, 1.58, 7.19, repro,
2006-11-23,-0.93, 0.79, -12.79, 2.18, 1.74, 7.93, repro,
2006-11-24,-0.03, -0.07, -10.44, 2.14, 1.68, 7.73, repro,
2006-11-25,-0.48, -0.83, -12.50, 2.13, 1.65, 7.49, repro,
2006-11-26,-0.01, -0.19, -6.77, 2.11, 1.63, 7.40, repro,
2006-11-27,-2.70, 0.05, -10.16, 2.05, 1.60, 7.26, repro,
2006-11-28,-1.08, -0.53, -9.42, 2.03, 1.60, 7.27, repro,
2006-11-29,-0.67, -0.44, -12.56, 2.02, 1.60, 7.24, repro,
2006-11-30,-0.94, 0.92, -13.94, 2.03, 1.60, 7.23, repro,
2006-12-01,-0.84, 0.19, -25.42, 2.09, 1.63, 7.44, repro,
2006-12-02,-1.06, 0.39, -15.82, 2.02, 1.59, 7.21, repro,
2006-12-03,0.07, 0.58, -12.51, 2.02, 1.60, 7.27, repro,
2006-12-04,-0.77, 0.34, -16.73, 2.06, 1.63, 7.41, repro,
2006-12-05,-0.38, 0.97, -11.65, 2.07, 1.66, 7.43, repro,
2006-12-06,0.55, -0.13, -14.52, 2.13, 1.74, 7.63, repro,
2006-12-07,-0.64, -0.76, -6.84, 2.06, 1.67, 7.45, repro,
2006-12-08,-0.74, 0.73, -5.79, 2.05, 1.67, 7.47, repro,
2006-12-09,1.48, 1.06, -7.99, 2.13, 1.77, 7.72, repro,
2006-12-10,-0.11, -0.40, -6.91, 2.11, 1.68, 7.51, repro,
2006-12-11,-0.03, -1.05, -5.31, 2.05, 1.62, 7.29, repro,
2006-12-12,6.48, 1.08, -17.77, 7.56, 6.94, 26.25, repro,
2007-01-30,0.21, 2.29, -7.22, 3.72, 3.28, 13.08, repro,
2007-01-31,-1.08, 1.05, -11.50, 1.97, 1.55, 6.89, repro,
2007-02-01,-1.35, 1.36, -15.95, 2.01, 1.60, 7.09, repro,
2007-02-02,-0.59, 1.55, -14.01, 2.01, 1.58, 7.09, repro,
2007-02-03,-0.61, 1.16, -16.31, 2.02, 1.59, 7.16, repro,
2007-02-04,-1.10, 2.73, -17.12, 1.99, 1.57, 7.00, repro,
2007-02-05,-0.67, 1.89, -16.47, 1.98, 1.56, 6.92, repro,
2007-02-06,0.02, 2.55, -19.49, 2.02, 1.57, 7.00, repro,
2007-02-07,0.04, 0.92, -17.40, 1.98, 1.56, 6.93, repro,
2007-02-08,-0.04, 1.69, -22.74, 2.08, 1.63, 7.41, repro,
2007-02-09,-0.44, 0.57, -20.12, 2.02, 1.62, 7.23, repro,
2007-02-10,1.51, 1.71, -13.70, 1.97, 1.56, 6.94, repro,
2007-02-11,1.49, 2.68, -11.84, 1.97, 1.56, 6.91, repro,
2007-02-12,0.21, 0.19, -20.85, 1.97, 1.55, 6.93, repro,
2007-02-13,-0.66, 1.64, -24.21, 1.99, 1.57, 7.02, repro,
2007-02-14,-0.74, 2.19, -26.05, 1.97, 1.56, 6.98, repro,
2007-02-15,-0.11, 2.34, -26.98, 1.99, 1.57, 6.98, repro,
2007-02-16,-1.45, 2.77, -22.69, 1.95, 1.56, 6.94, repro,
2007-02-17,-0.75, 1.76, -14.62, 2.03, 1.61, 7.14, repro,
2007-02-18,-1.27, 2.41, -13.31, 2.00, 1.57, 7.11, repro,
2007-02-19,-1.44, 1.17, -7.60, 1.99, 1.57, 7.05, repro,
2007-02-20,-0.74, 2.08, -12.67, 1.98, 1.57, 7.00, repro,
2007-02-21,0.97, 1.80, -16.11, 1.97, 1.57, 7.00, repro,
2007-02-22,4.20, 0.83, -12.91, 1.97, 1.57, 7.02, repro,
2007-02-23,0.40, 1.68, -13.49, 2.08, 1.64, 7.45, repro,
2007-02-24,1.14, 0.12, -24.14, 2.67, 1.98, 9.35, repro,
2007-03-06,-3.00, 3.18, -0.17, 4.50, 3.67, 16.14, repro,
2007-03-07,-0.62, 0.62, -12.89, 2.05, 1.62, 7.24, repro,
2007-03-08,-1.50, 1.27, -12.88, 2.04, 1.62, 7.22, repro,
2007-03-09,-0.63, 0.77, -8.57, 2.03, 1.61, 7.24, repro,
2007-03-10,1.60, 0.17, -19.08, 2.07, 1.63, 7.33, repro,
2007-03-11,-0.88, 1.75, -16.81, 2.01, 1.60, 7.14, repro,
2007-03-12,-0.30, 1.47, -15.69, 2.02, 1.60, 7.14, repro,
2007-03-13,-0.82, 1.19, -19.93, 2.01, 1.57, 7.11, repro,
2007-03-14,-0.50, 1.95, -11.34, 2.00, 1.57, 7.09, repro,
2007-03-15,-0.90, 2.21, -18.89, 2.05, 1.63, 7.27, repro,
2007-03-16,-0.56, 1.53, -12.31, 2.01, 1.57, 7.07, repro,
2007-03-17,-1.06, 2.42, -9.97, 1.99, 1.55, 6.94, repro,
2007-03-18,-0.14, 2.78, -12.33, 2.01, 1.56, 7.03, repro,
2007-03-19,1.37, 2.58, -13.95, 2.01, 1.56, 7.01, repro,
2007-03-20,-0.65, 2.52, -8.97, 2.09, 1.58, 7.13, repro,
2007-03-21,-1.36, 1.98, -6.96, 2.07, 1.58, 7.10, repro,
2007-03-22,-1.17, 1.14, -9.49, 2.02, 1.59, 7.18, repro,
2007-03-23,0.11, 0.85, -11.92, 2.02, 1.58, 7.12, repro,
2007-03-24,-0.49, 0.39, -8.70, 2.03, 1.59, 7.20, repro,
2007-03-25,0.07, 1.45, -11.19, 2.02, 1.56, 7.07, repro,
2007-03-26,-0.98, 2.15, -15.74, 2.02, 1.57, 7.10, repro,
2007-03-27,-2.57, 0.74, -9.57, 2.04, 1.57, 7.06, repro,
2007-03-28,-1.42, 2.21, -20.52, 3.76, 2.70, 12.04, repro,
2007-04-05,-1.51, 3.32, -16.91, 5.07, 4.20, 18.24, repro,
2007-04-06,-0.57, 1.71, -16.73, 2.08, 1.64, 7.28, repro,
2007-04-07,-1.18, 1.21, -13.51, 2.06, 1.59, 7.13, repro,
2007-04-08,0.32, 1.21, -5.77, 2.12, 1.68, 7.39, repro,
2007-04-09,-1.16, 2.56, -11.82, 1.99, 1.55, 6.91, repro,
2007-04-10,0.33, 1.68, -13.07, 2.05, 1.58, 7.10, repro,
2007-04-11,0.21, 1.24, -10.61, 2.02, 1.56, 7.04, repro,
2007-04-12,-1.12, 0.75, -11.45, 2.03, 1.56, 7.06, repro,
2007-04-13,0.12, 0.35, -13.00, 2.02, 1.55, 6.98, repro,
2007-04-14,0.01, 0.86, -10.31, 2.00, 1.56, 7.00, repro,
2007-04-15,-0.81, 2.65, -14.04, 2.00, 1.54, 6.93, repro,
2007-04-16,-0.18, 1.91, -15.02, 2.01, 1.55, 6.97, repro,
2007-04-17,-3.28, 0.80, -11.81, 2.02, 1.55, 7.03, repro,
2007-04-18,-2.90, 1.65, -14.41, 2.02, 1.54, 7.02, repro,
2007-04-19,1.03, 0.88, -13.13, 2.01, 1.55, 7.03, repro,
2007-04-20,-0.45, -0.35, -13.55, 1.99, 1.53, 6.90, repro,
2007-04-21,1.10, 1.30, -14.63, 2.02, 1.54, 7.01, repro,
2007-04-22,0.34, 1.05, -16.12, 2.01, 1.55, 6.98, repro,
2007-04-23,-0.65, 1.23, -13.27, 2.06, 1.57, 7.14, repro,
2007-04-24,0.43, 1.12, -17.87, 2.05, 1.57, 7.14, repro,
2007-04-25,-0.65, 1.89, -14.18, 2.04, 1.56, 7.09, repro,
2007-04-26,-0.61, 1.41, -15.58, 2.01, 1.54, 7.02, repro,
2007-04-27,0.48, 1.31, -12.11, 2.06, 1.59, 7.17, repro,
2007-04-28,-0.13, 1.18, -14.66, 2.03, 1.55, 7.07, repro,
2007-04-29,-0.89, 1.16, -12.73, 2.03, 1.54, 7.04, repro,
2007-04-30,2.19, 1.35, -13.53, 2.02, 1.54, 7.05, repro,
2007-05-01,-0.87, 1.63, -14.58, 2.03, 1.54, 7.07, repro,
2007-05-02,0.39, 1.70, -20.00, 2.09, 1.57, 7.29, repro,
2007-05-03,-1.05, 2.07, -13.91, 2.10, 1.56, 7.26, repro,
2007-05-04,0.35, 0.80, -15.89, 2.03, 1.54, 7.02, repro,
2007-05-05,-1.11, 0.68, -14.41, 2.05, 1.58, 7.15, repro,
2007-05-06,0.24, 1.57, -22.25, 2.04, 1.53, 7.04, repro,
2007-05-07,-0.65, 1.26, -19.53, 2.03, 1.54, 7.08, repro,
2007-05-08,-0.07, 1.61, -13.60, 2.01, 1.54, 6.98, repro,
2007-05-09,0.17, 1.62, -17.39, 2.02, 1.53, 6.97, repro,
2007-05-10,-0.12, 1.04, -17.38, 2.13, 1.60, 7.44, repro,
2007-05-11,1.85, 1.29, -21.52, 2.14, 1.61, 7.44, repro,
2007-05-12,0.09, 1.57, -14.83, 2.07, 1.55, 7.12, repro,
2007-05-13,0.64, 1.55, -17.69, 2.09, 1.59, 7.23, repro,
2007-05-14,0.06, 1.52, -16.99, 2.06, 1.58, 7.10, repro,
2007-05-15,0.29, 1.24, -16.71, 2.05, 1.55, 7.05, repro,
2007-05-16,0.58, 1.74, -18.12, 2.06, 1.56, 7.12, repro,
2007-05-17,0.55, 1.34, -13.77, 2.11, 1.60, 7.37, repro,
2007-05-18,2.05, 0.39, -14.38, 2.15, 1.63, 7.47, repro,
2007-05-19,0.14, 0.59, -16.58, 2.08, 1.60, 7.21, repro,
2007-05-20,0.63, 1.34, -14.09, 2.12, 1.62, 7.28, repro,
2007-05-21,-0.59, 0.75, -10.51, 2.09, 1.58, 7.19, repro,
2007-05-22,0.50, 1.13, -12.36, 2.08, 1.58, 7.16, repro,
2007-05-23,0.93, 0.13, -14.93, 2.11, 1.58, 7.23, repro,
2007-05-24,-0.58, 0.90, -9.47, 2.17, 1.69, 7.56, repro,
2007-05-25,-0.22, 1.09, -13.20, 2.05, 1.55, 7.03, repro,
2007-05-26,0.27, 1.59, -13.23, 2.08, 1.59, 7.16, repro,
2007-05-27,0.21, 0.38, -8.52, 2.11, 1.59, 7.20, repro,
2007-05-28,-0.11, 0.93, -14.99, 2.10, 1.57, 7.15, repro,
2007-05-29,0.62, 0.86, -9.59, 2.07, 1.55, 7.07, repro,
2007-05-30,0.04, 0.55, -14.34, 2.10, 1.56, 7.13, repro,
2007-05-31,0.06, 1.70, -14.60, 2.09, 1.60, 7.17, repro,
2007-06-01,-0.11, 1.28, -13.14, 2.06, 1.55, 7.05, repro,
2007-06-02,0.06, 0.85, -14.78, 2.05, 1.55, 7.01, repro,
2007-06-03,1.01, 2.11, -14.72, 2.05, 1.54, 7.01, repro,
2007-06-04,-0.93, 1.28, 3.94, 2.08, 1.59, 7.23, repro,
2007-06-05,-0.98, 1.06, -6.37, 2.10, 1.57, 7.17, repro,
2007-06-06,-0.58, 1.73, -10.23, 2.05, 1.55, 6.98, repro,
2007-06-07,-0.11, 0.31, -8.56, 2.06, 1.55, 7.03, repro,
2007-06-08,0.36, 1.04, -10.96, 2.04, 1.54, 6.97, repro,
2007-06-09,0.78, 1.26, -16.69, 2.07, 1.58, 7.15, repro,
2007-06-10,-0.20, -0.08, -15.87, 2.06, 1.56, 7.06, repro,
2007-06-11,-1.16, 1.73, -13.34, 2.08, 1.65, 7.28, repro,
2007-06-12,0.88, 1.55, -12.09, 2.06, 1.58, 7.07, repro,
2007-06-13,1.63, 0.19, -14.30, 2.10, 1.59, 7.18, repro,
2007-06-14,1.09, 0.45, -19.09, 2.09, 1.59, 7.17, repro,
2007-06-15,-1.01, 1.83, -12.56, 2.06, 1.55, 7.04, repro,
2007-06-16,-0.89, 1.23, -14.86, 2.05, 1.56, 7.03, repro,
2007-06-17,1.14, 0.64, -12.74, 2.04, 1.55, 6.97, repro,
2007-06-18,0.93, 2.03, -9.51, 2.04, 1.54, 6.96, repro,
2007-06-19,0.63, 0.94, -13.27, 2.04, 1.54, 7.01, repro,
2007-06-20,0.20, 1.54, -19.27, 2.04, 1.54, 7.00, repro,
2007-06-21,0.34, 1.21, -16.61, 2.07, 1.55, 7.05, repro,
2007-06-22,0.18, 1.82, -16.49, 2.05, 1.56, 7.06, repro,
2007-06-23,0.04, 1.65, -19.70, 2.04, 1.54, 6.96, repro,
2007-06-24,0.28, 1.38, -17.65, 2.08, 1.59, 7.23, repro,
2007-06-25,0.05, 1.64, -19.08, 2.05, 1.54, 7.02, repro,
2007-06-26,1.13, 1.50, -20.05, 2.05, 1.55, 7.04, repro,
2007-06-27,0.98, 1.12, -13.51, 2.05, 1.56, 7.04, repro,
2007-06-28,0.81, 4.66, -12.55, 2.06, 1.56, 7.09, repro,
2007-06-29,1.73, 3.56, -16.02, 2.04, 1.55, 7.03, repro,
2007-06-30,-0.05, 1.86, -13.55, 2.03, 1.54, 6.99, repro,
2007-07-01,0.41, 1.56, -11.52, 2.04, 1.54, 7.00, repro,
2007-07-02,0.05, 1.70, -8.99, 2.05, 1.56, 7.02, repro,
2007-07-03,0.88, 1.46, -16.65, 2.05, 1.55, 7.03, repro,
2007-07-04,0.75, 2.64, -13.50, 2.04, 1.56, 7.02, repro,
2007-07-05,0.97, 1.53, -13.59, 2.04, 1.55, 7.00, repro,
2007-07-06,1.69, 2.28, -17.73, 2.04, 1.54, 7.00, repro,
2007-07-07,0.09, 1.68, -16.78, 2.05, 1.56, 7.04, repro,
2007-07-08,-0.55, 0.97, -10.81, 2.05, 1.56, 7.02, repro,
2007-07-09,2.31, 1.28, -15.39, 2.05, 1.56, 7.06, repro,
2007-07-10,1.54, 0.81, -11.53, 2.06, 1.55, 7.07, repro,
2007-07-11,0.56, 1.89, -9.39, 2.05, 1.55, 7.05, repro,
2007-07-12,1.02, 1.64, -11.97, 2.04, 1.55, 6.99, repro,
2007-07-13,0.40, 1.33, -13.22, 2.07, 1.60, 7.17, repro,
2007-07-14,0.44, 1.49, -11.99, 2.07, 1.62, 7.18, repro,
2007-07-15,1.51, 1.44, -5.28, 2.08, 1.62, 7.24, repro,
2007-07-16,0.62, 1.66, -15.89, 2.05, 1.55, 7.03, repro,
2007-07-17,1.11, 1.32, -9.82, 2.08, 1.60, 7.20, repro,
2007-07-18,0.98, 1.68, -15.22, 2.05, 1.56, 7.07, repro,
2007-07-19,0.24, 1.29, -10.56, 2.04, 1.55, 7.01, repro,
2007-07-20,1.70, -0.37, -11.04, 2.08, 1.61, 7.21, repro,
2007-07-21,1.43, 0.73, -8.26, 2.10, 1.61, 7.26, repro,
2007-07-22,1.18, 3.18, -8.73, 2.16, 1.63, 7.49, repro,
2007-07-23,0.65, 1.83, -12.13, 2.10, 1.61, 7.31, repro,
2007-07-24,0.38, 1.96, -8.98, 2.09, 1.61, 7.22, repro,
2007-07-25,0.54, 1.10, -7.25, 2.05, 1.56, 7.08, repro,
2007-07-26,1.57, 1.00, -14.14, 2.06, 1.56, 7.08, repro,
2007-07-27,-0.05, 0.95, -10.26, 2.10, 1.61, 7.25, repro,
2007-07-28,0.12, 0.99, -11.20, 2.05, 1.55, 7.04, repro,
2007-07-29,-1.44, 0.60, -12.83, 2.05, 1.56, 7.09, repro,
2007-07-30,-0.73, 0.54, -7.49, 2.04, 1.55, 7.00, repro,
2007-07-31,-0.05, -0.23, -6.48, 2.05, 1.55, 7.04, repro,
2007-08-01,0.03, 0.94, -1.79, 2.05, 1.55, 7.00, repro,
2007-08-02,-0.19, 1.28, -3.22, 2.05, 1.55, 7.02, repro,
2007-08-03,1.33, -0.14, -7.21, 2.04, 1.55, 7.00, repro,
2007-08-04,0.18, -0.38, -4.46, 2.09, 1.56, 7.12, repro,
2007-08-05,0.89, 0.08, -1.59, 2.10, 1.57, 7.17, repro,
2007-08-06,0.80, -0.56, -1.76, 2.09, 1.59, 7.17, repro,
2007-08-07,0.52, 0.79, -1.43, 2.07, 1.58, 7.07, repro,
2007-08-08,-0.80, 0.68, -5.63, 2.04, 1.55, 7.02, repro,
2007-08-09,-0.29, 0.49, -7.32, 2.03, 1.55, 7.02, repro,
2007-08-10,-1.00, 1.01, -5.43, 2.04, 1.55, 7.02, repro,
2007-08-11,-0.94, 0.63, 0.12, 2.06, 1.55, 7.05, repro,
2007-08-12,-0.78, 1.03, -7.01, 2.02, 1.54, 6.91, repro,
2007-08-13,-0.56, -0.21, -8.50, 2.03, 1.55, 6.98, repro,
2007-08-14,-0.21, -0.34, -8.68, 2.15, 1.67, 7.38, repro,
2007-08-15,-1.49, 0.30, -4.60, 2.15, 1.67, 7.38, repro,
2007-08-16,0.03, -0.73, -4.19, 2.13, 1.62, 7.30, repro,
2007-08-17,-0.84, 0.11, -9.19, 2.14, 1.61, 7.24, repro,
2007-08-18,-0.21, 0.76, -8.71, 2.16, 1.64, 7.43, repro,
2007-08-19,0.67, 1.06, -2.92, 2.18, 1.65, 7.50, repro,
2007-08-20,-0.57, -0.73, -7.12, 2.12, 1.61, 7.31, repro,
2007-08-21,-0.12, -0.00, -6.70, 2.13, 1.62, 7.34, repro,
2007-08-22,-0.74, -0.45, -5.51, 2.16, 1.60, 7.31, repro,
2007-08-23,-1.67, -0.75, 3.11, 2.09, 1.56, 7.07, repro,
2007-08-24,0.40, 0.55, -0.96, 2.20, 1.63, 7.44, repro,
2007-08-25,0.31, -0.12, -7.37, 2.14, 1.62, 7.37, repro,
2007-08-26,0.32, 0.63, -3.82, 2.17, 1.66, 7.51, repro,
2007-08-27,-0.22, -0.11, -3.81, 2.19, 1.67, 7.57, repro,
2007-08-28,-1.53, -0.01, -3.51, 2.14, 1.64, 7.41, repro,
2007-08-29,-0.21, -0.85, -4.87, 2.14, 1.63, 7.35, repro,
2007-08-30,-0.26, -1.16, -8.03, 2.13, 1.62, 7.33, repro,
2007-08-31,-1.54, -0.43, -6.08, 2.15, 1.62, 7.37, repro,
2007-09-01,-0.97, -0.92, -2.10, 2.15, 1.63, 7.39, repro,
2007-09-02,-0.81, -0.70, -3.24, 2.14, 1.63, 7.36, repro,
2007-09-03,0.16, -1.27, -2.09, 2.14, 1.63, 7.36, repro,
2007-09-04,-0.88, -0.68, -7.71, 2.13, 1.62, 7.33, repro,
2007-09-05,-0.87, -1.14, -5.92, 2.15, 1.66, 7.43, repro,
2007-09-06,-1.42, -2.17, -4.07, 2.16, 1.63, 7.44, repro,
2007-09-07,-1.71, -0.40, -1.24, 2.14, 1.61, 7.33, repro,
2007-09-08,-0.49, -1.18, 1.02, 2.20, 1.68, 7.60, repro,
2007-09-09,-0.69, -1.13, -0.10, 2.22, 1.71, 7.74, repro,
2007-09-10,-1.00, -0.78, -4.17, 2.14, 1.63, 7.36, repro,
2007-09-11,-1.41, -0.81, -4.21, 2.16, 1.63, 7.39, repro,
2007-09-12,0.54, -1.21, -8.01, 2.20, 1.66, 7.60, repro,
2007-09-13,-0.33, -0.10, -5.87, 2.30, 1.69, 7.81, repro,
2007-09-14,-0.37, -1.03, -5.79, 2.20, 1.68, 7.63, repro,
2007-09-15,-1.16, -1.37, -0.44, 2.22, 1.66, 7.69, repro,
2007-09-16,-1.24, -1.37, 0.40, 2.16, 1.63, 7.40, repro,
2007-09-17,-1.85, 0.05, -3.72, 2.21, 1.67, 7.65, repro,
2007-09-18,-1.01, -1.58, -4.13, 2.12, 1.63, 7.35, repro,
2007-09-19,-0.19, -1.10, -5.99, 2.05, 1.56, 7.04, repro,
2007-09-20,-3.05, -0.09, 1.69, 2.05, 1.56, 7.04, repro,
2007-09-21,-1.71, -1.08, 2.47, 2.14, 1.60, 7.41, repro,
2007-09-22,-1.26, -0.63, -0.69, 2.10, 1.57, 7.18, repro,
2007-09-23,-0.59, 0.62, -3.81, 2.15, 1.61, 7.29, repro,
2007-09-24,0.06, 0.13, -0.15, 2.20, 1.64, 7.49, repro,
2007-09-25,-1.15, -0.37, -7.52, 2.13, 1.60, 7.33, repro,
2007-09-26,-1.29, 0.08, 2.88, 2.16, 1.58, 7.29, repro,
2007-09-27,-3.08, -0.44, -4.77, 2.15, 1.60, 7.39, repro,
2007-09-28,-1.98, 0.31, -4.84, 2.19, 1.70, 7.51, repro,
2007-09-29,-2.18, -0.28, -6.35, 2.14, 1.65, 7.35, repro,
2007-09-30,-1.95, -0.48, 0.15, 2.15, 1.66, 7.43, repro,
2007-10-01,-1.68, -0.82, -0.90, 2.13, 1.65, 7.38, repro,
2007-10-02,-1.76, 0.17, -0.74, 2.19, 1.70, 7.66, repro,
2007-10-03,-1.47, -0.30, -1.03, 2.15, 1.62, 7.41, repro,
2007-10-04,-3.17, 0.35, 6.24, 2.14, 1.62, 7.40, repro,
2007-10-05,-1.61, 0.54, 3.87, 2.17, 1.70, 7.62, repro,
2007-10-06,-2.16, -0.27, -2.08, 2.15, 1.66, 7.41, repro,
2007-10-07,-2.04, 0.60, -2.34, 2.18, 1.67, 7.49, repro,
2007-10-08,-1.75, -0.24, -6.21, 2.41, 1.77, 8.27, repro,
2007-10-09,-0.69, 0.64, -1.69, 2.31, 1.82, 8.09, repro,
2007-10-10,-3.07, 1.40, -3.50, 2.27, 1.70, 7.73, repro,
2007-10-11,-0.97, -0.99, -5.59, 2.14, 1.65, 7.39, repro,
2007-10-12,-1.55, -0.97, -1.59, 2.13, 1.65, 7.38, repro,
2007-10-13,-1.84, -0.09, -3.26, 2.07, 1.60, 7.22, repro,
2007-10-14,-2.24, -0.50, -3.02, 2.08, 1.59, 7.22, repro,
2007-10-15,-2.08, -1.11, 0.44, 2.27, 1.73, 7.67, repro,
2007-10-16,-2.09, -1.18, 8.40, 2.22, 1.75, 7.95, repro,
2007-10-17,-1.40, 0.26, 1.57, 2.08, 1.60, 7.26, repro,
2007-10-18,-1.79, 0.17, -5.78, 2.08, 1.60, 7.25, repro,
2007-10-19,-1.63, -0.44, -1.34, 2.06, 1.58, 7.23, repro,
2007-10-20,-2.46, 0.60, 3.72, 2.04, 1.56, 7.08, repro,
2007-10-21,-1.54, 0.17, -4.85, 2.09, 1.60, 7.25, repro,
2007-10-22,-0.30, 2.03, -3.85, 2.09, 1.58, 7.28, repro,
2007-10-23,-2.29, 1.30, -11.07, 2.18, 1.68, 7.54, repro,
2007-10-24,-1.67, 1.29, -10.24, 2.19, 1.70, 7.67, repro,
2007-10-25,-2.08, 0.73, -13.51, 2.08, 1.60, 7.28, repro,
2007-10-26,-0.81, 1.26, -7.84, 2.12, 1.64, 7.40, repro,
2007-10-27,-1.21, -0.28, -8.88, 2.09, 1.60, 7.26, repro,
2007-10-28,-1.34, 0.34, -9.25, 2.07, 1.60, 7.20, repro,
2007-10-29,-1.29, 0.85, -8.05, 2.20, 1.73, 7.72, repro,
2007-10-30,-1.22, 0.57, -3.56, 2.08, 1.61, 7.30, repro,
2007-10-31,-1.54, 0.81, -12.05, 2.06, 1.59, 7.19, repro,
2007-11-01,-1.91, 0.37, -8.58, 2.04, 1.57, 7.07, repro,
2007-11-02,-1.26, 0.09, -7.94, 2.04, 1.55, 7.00, repro,
2007-11-03,-1.45, 1.45, -8.54, 2.04, 1.56, 7.05, repro,
2007-11-04,-0.63, 0.96, -6.97, 2.08, 1.61, 7.25, repro,
2007-11-05,-1.33, 0.58, -8.43, 2.04, 1.57, 7.07, repro,
2007-11-06,-1.55, 0.63, -14.70, 2.12, 1.65, 7.49, repro,
2007-11-07,-0.91, -0.64, -9.76, 2.04, 1.56, 7.02, repro,
2007-11-08,-1.79, 0.38, -7.31, 2.07, 1.59, 7.06, repro,
2007-11-09,0.12, 0.26, -11.93, 2.08, 1.59, 7.18, repro,
2007-11-10,1.08, 0.57, -13.68, 2.04, 1.56, 7.05, repro,
2007-11-11,-1.03, -1.27, -10.67, 2.05, 1.57, 7.15, repro,
2007-11-12,-1.62, 0.06, -9.62, 2.05, 1.55, 7.05, repro,
2007-11-13,-0.80, 0.66, -8.18, 2.03, 1.55, 6.99, repro,
2007-11-14,-0.63, 0.98, -12.87, 2.04, 1.56, 7.05, repro,
2007-11-15,1.25, -0.12, -10.58, 2.09, 1.58, 7.24, repro,
2007-11-16,1.13, -1.89, -4.44, 2.04, 1.56, 7.09, repro,
2007-11-17,-0.94, 0.40, -12.41, 2.07, 1.57, 7.18, repro,
2007-11-18,1.05, -0.92, -12.44, 2.04, 1.56, 7.06, repro,
2007-11-19,1.24, -1.71, -13.28, 2.11, 1.67, 7.45, repro,
2007-11-20,-1.14, -0.43, -19.21, 2.05, 1.60, 7.19, repro,
2007-11-21,-0.16, -0.78, -13.24, 2.04, 1.61, 7.15, repro,
2007-11-22,-0.55, -0.21, -16.38, 2.04, 1.58, 7.07, repro,
2007-11-23,0.47, -0.65, -11.02, 2.11, 1.66, 7.38, repro,
2007-11-24,-0.03, -0.30, -12.03, 2.06, 1.61, 7.19, repro,
2007-11-25,-0.07, -0.78, -10.89, 2.11, 1.66, 7.28, repro,
2007-11-26,0.47, -0.34, -15.23, 2.12, 1.68, 7.45, repro,
2007-11-27,-0.39, 0.31, -16.39, 2.09, 1.65, 7.34, repro,
2007-11-28,-0.05, 0.47, -18.37, 2.10, 1.65, 7.27, repro,
2007-11-29,0.24, -0.97, -16.88, 2.13, 1.65, 7.44, repro,
2007-11-30,-1.38, -1.10, -14.84, 2.06, 1.62, 7.23, repro,
2007-12-01,-0.07, -0.96, -7.56, 2.17, 1.74, 7.61, repro,
2007-12-02,-0.50, 1.31, -6.22, 2.15, 1.75, 7.72, repro,
2007-12-03,-1.05, 1.18, -16.98, 2.20, 1.74, 7.83, repro,
2007-12-04,0.41, -0.33, -10.56, 2.20, 1.79, 8.04, repro,
2007-12-05,0.55, 0.86, -13.26, 2.25, 1.83, 8.14, repro,
2007-12-06,1.22, 0.59, -7.42, 2.36, 1.94, 8.56, repro,
2007-12-07,-0.19, -0.90, -11.18, 2.27, 1.87, 7.99, repro,
2007-12-08,-0.88, 0.78, -7.05, 2.12, 1.69, 7.47, repro,
2007-12-09,-0.30, 1.80, -11.15, 2.32, 2.01, 8.81, repro,
2007-12-10,-0.08, 0.51, -11.99, 2.18, 1.74, 7.59, repro,
2007-12-11,0.09, 0.93, -15.91, 2.18, 1.75, 7.58, repro,
2007-12-12,0.32, 0.14, -20.14, 2.17, 1.68, 7.47, repro,
2007-12-13,0.06, 0.86, -19.22, 2.12, 1.63, 7.35, repro,
2007-12-14,0.46, 0.27, -11.09, 2.10, 1.60, 7.26, repro,
2007-12-15,-0.23, 1.23, -7.69, 2.09, 1.59, 7.23, repro,
2007-12-16,0.63, -0.64, -13.21, 2.09, 1.59, 7.19, repro,
2007-12-17,-0.79, 0.90, -10.82, 2.15, 1.63, 7.30, repro,
2007-12-18,0.13, -0.24, -7.30, 2.09, 1.59, 7.18, repro,
2007-12-19,-0.37, -0.24, -6.78, 2.12, 1.63, 7.33, repro,
2007-12-20,-1.67, -0.79, -8.88, 2.12, 1.64, 7.38, repro,
2007-12-21,-0.03, -0.39, -11.77, 2.16, 1.72, 7.69, repro,
2007-12-22,-0.27, -0.48, -12.39, 2.13, 1.66, 7.44, repro,
2007-12-23,-0.09, 2.03, -15.96, 2.16, 1.68, 7.49, repro,
2007-12-24,0.82, 1.19, -10.17, 2.12, 1.63, 7.36, repro,
2007-12-25,0.85, 0.83, -11.58, 2.13, 1.63, 7.37, repro,
2007-12-26,-0.22, 0.27, -7.26, 2.08, 1.60, 7.19, repro,
2007-12-27,1.33, 1.42, -9.99, 2.13, 1.64, 7.42, repro,
2007-12-28,-0.17, 2.62, -12.83, 2.14, 1.64, 7.45, repro,
2007-12-29,1.33, 1.79, -6.82, 2.13, 1.60, 7.34, repro,
2007-12-30,-1.38, 1.78, -9.80, 2.16, 1.65, 7.48, repro,
2007-12-31,0.30, 0.87, -11.84, 2.10, 1.57, 7.15, repro,
2008-01-01,-0.25, 0.35, -14.67, 2.09, 1.57, 7.16, repro,
2008-01-02,-0.06, 1.19, -14.42, 2.08, 1.56, 7.13, repro,
2008-01-03,0.57, -0.22, -5.69, 2.12, 1.58, 7.26, repro,
2008-01-04,-1.49, -0.62, -3.50, 2.08, 1.56, 7.18, repro,
2008-01-05,-1.66, 1.41, 0.03, 2.07, 1.54, 7.06, repro,
2008-01-06,-0.30, 0.38, -5.98, 2.06, 1.53, 7.03, repro,
2008-01-07,-0.75, 1.88, -3.18, 2.06, 1.54, 7.07, repro,
2008-01-08,-1.92, 1.09, -8.59, 2.11, 1.55, 7.18, repro,
2008-01-09,-0.05, 1.15, -16.46, 2.11, 1.56, 7.18, repro,
2008-01-10,1.03, 2.26, -14.64, 2.07, 1.56, 7.13, repro,
2008-01-11,0.51, 2.11, -11.67, 2.06, 1.54, 7.03, repro,
2008-01-12,-0.30, 1.92, -15.41, 2.06, 1.55, 7.06, repro,
2008-01-13,-1.37, 1.53, -17.89, 2.05, 1.54, 7.01, repro,
2008-01-14,-1.59, 2.74, -15.67, 2.04, 1.55, 6.97, repro,
2008-01-15,-1.99, 2.85, -12.83, 2.10, 1.61, 7.15, repro,
2008-01-16,-0.47, 2.96, -16.42, 2.09, 1.57, 7.14, repro,
2008-01-17,-1.00, 2.43, -11.58, 2.08, 1.56, 7.12, repro,
2008-01-18,-0.31, 2.30, -14.35, 2.07, 1.59, 7.21, repro,
2008-01-19,-0.42, 2.30, -18.12, 2.03, 1.53, 6.94, repro,
2008-01-20,-2.07, 3.03, -15.23, 2.04, 1.55, 6.98, repro,
2008-01-21,-1.51, 1.52, -10.97, 2.08, 1.61, 7.23, repro,
2008-01-22,-0.93, 3.72, -17.52, 2.04, 1.55, 7.02, repro,
2008-01-23,-1.56, 2.46, -11.76, 2.05, 1.55, 7.03, repro,
2008-01-24,-0.97, 2.39, -10.15, 2.03, 1.54, 6.96, repro,
2008-01-25,-1.28, 1.57, -14.34, 2.02, 1.53, 6.93, repro,
2008-01-26,0.45, 3.34, -15.82, 2.03, 1.55, 7.00, repro,
2008-01-27,-1.74, 2.36, -6.52, 2.04, 1.55, 7.04, repro,
2008-01-28,-1.70, 1.90, -5.06, 2.04, 1.55, 7.02, repro,
2008-01-29,-0.35, 2.51, -12.14, 2.15, 1.66, 7.44, repro,
2008-01-30,0.02, 2.58, -13.12, 2.15, 1.62, 7.39, repro,
2008-01-31,-0.33, 3.09, -17.27, 2.03, 1.55, 7.00, repro,
2008-02-01,-0.27, 2.78, -21.77, 2.03, 1.55, 7.00, repro,
2008-02-02,0.42, 3.07, -17.75, 2.03, 1.55, 7.01, repro,
2008-02-03,-1.52, 2.78, -17.45, 2.06, 1.55, 7.02, repro,
2008-02-04,-0.32, 3.53, -14.67, 2.04, 1.55, 7.00, repro,
2008-02-05,0.27, 3.51, -20.96, 2.06, 1.60, 7.13, repro,
2008-02-06,0.66, 2.66, -20.16, 2.07, 1.62, 7.21, repro,
2008-02-07,0.85, 3.02, -18.52, 2.07, 1.58, 7.20, repro,
2008-02-08,-0.03, 3.08, -21.12, 2.03, 1.55, 6.99, repro,
2008-02-09,-0.33, 4.02, -20.47, 2.04, 1.55, 7.04, repro,
2008-02-10,-0.73, 3.24, -17.99, 2.03, 1.54, 6.98, repro,
2008-02-11,-0.33, 3.55, -15.44, 2.03, 1.55, 6.99, repro,
2008-02-12,-0.75, 3.66, -15.39, 2.04, 1.54, 6.97, repro,
2008-02-13,-1.64, 2.87, -13.39, 2.02, 1.54, 6.98, repro,
2008-02-14,-1.02, 2.85, -17.35, 2.03, 1.54, 6.95, repro,
2008-02-15,-0.55, 2.28, -15.77, 2.06, 1.59, 7.13, repro,
2008-02-16,-0.98, 2.57, -11.26, 2.03, 1.54, 6.96, repro,
2008-02-17,-1.86, 3.68, -12.53, 2.03, 1.56, 6.99, repro,
2008-02-18,-1.90, 2.66, -8.06, 2.03, 1.55, 7.00, repro,